EW4629 Weather Reports


Display with metric or nautical units.
time (UTC)temp
F
wind
direction
speed
MPH
gust
MPH
rain 1hr
in
rain 24hr
in
rain mn
in
humidity
%
barometer
mb
20260504081501 56 238 0.0 0.0 0.00 0.00 0.00 1 1015.7
20260504050007 52 229 0.0 0.0 0.00 0.00 0.00 11 1016.1
20260504044509 52 273 0.0 0.0 0.00 0.00 0.00 13 1016.1
20260504043101 51 232 0.0 0.0 0.00 0.00 0.00 21 1016.0
20260504041602 51 231 0.0 0.0 0.00 0.00 0.00 33 1015.9
20260504040055 50 251 0.0 0.0 0.00 0.00 0.00 37 1015.7
20260504034559 50 271 0.0 0.0 0.00 0.00 0.00 44 1015.7
20260504033051 51 274 0.0 0.0 0.00 0.00 0.00 49 1015.5
20260504031551 50 274 0.0 0.0 0.00 0.00 0.00 52 1015.5
20260504030050 50 278 0.0 0.0 0.00 0.00 0.00 53 1015.4
20260504024553 50 280 0.0 0.0 0.00 0.00 0.00 53 1015.4
20260504023050 50 280 0.0 0.0 0.00 0.00 0.00 54 1015.4
20260504021552 50 281 0.0 0.0 0.00 0.00 0.00 55 1015.4
20260504020058 51 281 0.0 0.0 0.00 0.00 0.00 56 1015.4
20260504014548 51 280 0.0 0.0 0.00 0.00 0.00 56 1015.3
20260504013108 52 280 0.0 0.0 0.00 0.00 0.00 56 1015.2
20260504011548 53 280 0.0 0.0 0.00 0.00 0.00 55 1015.0
20260504010047 53 281 0.0 0.0 0.00 0.00 0.00 54 1015.0
20260504004547 54 281 0.0 0.0 0.00 0.00 0.00 53 1014.8
20260504003046 55 282 0.0 0.0 0.00 0.00 0.00 51 1014.8
20260504001549 56 281 0.0 0.0 0.00 0.00 0.00 47 1014.7
20260504000045 58 281 0.0 0.0 0.00 0.00 0.00 45 1014.4
20260503234545 59 282 0.0 0.0 0.00 0.00 0.00 44 1014.2
20260503233045 61 282 0.0 0.0 0.00 0.00 0.00 40 1014.1
20260503231544 62 282 0.0 0.0 0.00 0.00 0.00 37 1014.2
20260503230044 63 320 0.0 0.0 0.00 0.00 0.00 37 1014.2
20260503224544 63 340 0.0 0.0 0.00 0.00 0.00 36 1014.1
20260503223044 63 282 0.0 0.0 0.00 0.00 0.00 37 1014.1
20260503221556 63 317 0.0 0.0 0.00 0.00 0.00 36 1014.3
20260503220041 63 318 0.0 0.0 0.00 0.00 0.00 35 1014.4
20260503214542 62 337 0.0 0.0 0.00 0.00 0.00 36 1014.2
20260503213044 62 322 0.0 0.0 0.00 0.00 0.00 36 1014.3
20260503211539 63 300 0.0 0.0 0.00 0.00 0.00 36 1014.3
20260503210037 62 319 0.0 0.0 0.00 0.00 0.00 38 1014.3
20260503204537 62 341 0.0 0.0 0.00 0.00 0.00 38 1014.3
20260503203037 61 343 0.0 0.0 0.00 0.00 0.00 37 1014.4
20260503201535 61 275 0.0 0.0 0.00 0.00 0.00 37 1014.6
20260503200033 60 266 0.0 0.0 0.00 0.00 0.00 38 1014.8
20260503194534 60 309 0.0 0.0 0.00 0.00 0.00 38 1015.1
20260503193043 60 331 0.0 0.0 0.00 0.00 0.00 37 1015.2
20260503191600 61 308 0.0 0.0 0.00 0.00 0.00 38 1015.3
20260503190034 61 350 0.0 0.0 0.00 0.00 0.00 40 1015.4
20260503184528 60 343 0.0 0.0 0.00 0.00 0.00 41 1015.5
20260503183026 59 305 0.0 0.0 0.00 0.00 0.00 40 1015.7
20260503181529 58 359 0.0 0.0 0.00 0.00 0.00 43 1015.8
20260503180026 58 310 0.0 0.0 0.00 0.00 0.00 40 1015.7
20260503174521 58 286 0.0 0.0 0.00 0.00 0.00 39 1016.0
20260503173019 57 320 0.0 0.0 0.00 0.00 0.00 42 1016.0
20260503171517 57 256 0.0 0.0 0.00 0.00 0.00 42 1016.1